,,,PA_Meas_PMT16A,,PR_Meas_QMR101_102,,RH_Meas_QMH101,,SR_Meas_QMS101,,TA_Meas_QMH101,,GenWind,,GenWind,
date,time,status,PA,status,PR,status,RH,status,SR,status,TA,status,DirAvg,status,SpdAvg,
2010-04-22, 00:00:05,VALID,1001.57,VALID,0,VALID,92.0209,VALID,0,VALID,24.5209,VALID,90,VALID,0,
2010-04-22, 00:01:05,VALID,1001.57,VALID,0,VALID,92.1582,VALID,0,VALID,24.5599,VALID,90,VALID,0,
2010-04-22, 00:02:05,VALID,1001.54,VALID,0,VALID,92.2879,VALID,0,VALID,24.5794,VALID,91,VALID,0,
2010-04-22, 00:03:05,VALID,1001.52,VALID,0,VALID,92.204,VALID,0,VALID,24.5794,VALID,92,VALID,0,
2010-04-22, 00:04:05,VALID,1001.53,VALID,0,VALID,92.2726,VALID,0,VALID,24.5989,VALID,105,VALID,0.669531,
2010-04-22, 00:05:05,VALID,1001.48,VALID,0,VALID,92.3413,VALID,0,VALID,24.6184,VALID,112,VALID,0.664844,
2010-04-22, 00:06:04,VALID,1001.49,VALID,0,VALID,92.1582,VALID,0,VALID,24.638,VALID,112,VALID,0.237891,
2010-04-22, 00:07:04,VALID,1001.47,VALID,0,VALID,92.0819,VALID,0,VALID,24.638,VALID,112,VALID,0.360547,
2010-04-22, 00:08:04,VALID,1001.44,VALID,0,VALID,91.998,VALID,0,VALID,24.638,VALID,112,VALID,0.21875,
2010-04-22, 00:09:04,VALID,1001.43,VALID,0,VALID,92.0514,VALID,0,VALID,24.6184,VALID,112,VALID,0,
2010-04-22, 00:10:04,VALID,1001.43,VALID,0,VALID,92.0132,VALID,0,VALID,24.638,VALID,112,VALID,0,
2010-04-22, 00:11:04,VALID,1001.39,VALID,0,VALID,91.9827,VALID,0,VALID,24.5971,VALID,112,VALID,0.00117188,
2010-04-22, 00:12:04,VALID,1001.39,VALID,0,VALID,92.0361,VALID,0,VALID,24.6184,VALID,112,VALID,0.347266,
2010-04-22, 00:13:04,VALID,1001.35,VALID,0,VALID,92.0666,VALID,0,VALID,24.5971,VALID,112,VALID,0,
2010-04-22, 00:14:04,VALID,1001.32,VALID,0,VALID,92.0437,VALID,0,VALID,24.638,VALID,112,VALID,0,
2010-04-22, 00:15:04,VALID,1001.33,VALID,0,VALID,91.9751,VALID,0,VALID,24.6166,VALID,112,VALID,0.290625,
2010-04-22, 00:16:04,VALID,1001.33,VALID,0,VALID,91.8835,VALID,0,VALID,24.638,VALID,112,VALID,0.313281,
2010-04-22, 00:17:04,VALID,1001.33,VALID,0,VALID,91.7843,VALID,0,VALID,24.5971,VALID,112,VALID,0,
2010-04-22, 00:18:04,VALID,1001.35,VALID,0,VALID,91.8148,VALID,0,VALID,24.5971,VALID,112,VALID,0,
2010-04-22, 00:19:04,VALID,1001.33,VALID,0,VALID,91.8225,VALID,0,VALID,24.6166,VALID,112,VALID,0,
2010-04-22, 00:20:04,VALID,1001.3,VALID,0,VALID,92.0209,VALID,0,VALID,24.6575,VALID,112,VALID,0,
2010-04-22, 00:21:04,VALID,1001.34,VALID,0,VALID,91.9674,VALID,0,VALID,24.6751,VALID,112,VALID,0,
2010-04-22, 00:22:04,VALID,1001.34,VALID,0,VALID,91.8988,VALID,0,VALID,24.7142,VALID,112,VALID,0,
2010-04-22, 00:23:04,VALID,1001.32,VALID,0,VALID,91.7996,VALID,0,VALID,24.7532,VALID,118,VALID,0,
2010-04-22, 00:24:04,VALID,1001.3,VALID,0,VALID,91.7309,VALID,0,VALID,24.7922,VALID,119,VALID,0,
2010-04-22, 00:25:04,VALID,1001.33,VALID,0,VALID,91.6241,VALID,0,VALID,24.7922,VALID,119,VALID,0,
2010-04-22, 00:26:04,VALID,1001.28,VALID,0,VALID,91.5326,VALID,0,VALID,24.8332,VALID,119,VALID,0,
2010-04-22, 00:27:04,VALID,1001.3,VALID,0,VALID,91.4334,VALID,0,VALID,24.8117,VALID,119,VALID,0,
2010-04-22, 00:28:04,VALID,1001.27,VALID,0,VALID,91.2808,VALID,0,VALID,24.8136,VALID,119,VALID,0,
2010-04-22, 00:29:04,VALID,1001.26,VALID,0,VALID,91.235,VALID,0,VALID,24.7922,VALID,119,VALID,0,
2010-04-22, 00:30:04,VALID,1001.27,VALID,0,VALID,91.1816,VALID,0,VALID,24.7941,VALID,119,VALID,0,
2010-04-22, 00:31:04,VALID,1001.24,VALID,0,VALID,91.1358,VALID,0,VALID,24.7532,VALID,119,VALID,0,
2010-04-22, 00:32:04,VALID,1001.24,VALID,0,VALID,91.2808,VALID,0,VALID,24.7746,VALID,119,VALID,0,
2010-04-22, 00:33:04,VALID,1001.23,VALID,0,VALID,91.3876,VALID,0,VALID,24.7727,VALID,119,VALID,0,
2010-04-22, 00:34:04,VALID,1001.21,VALID,0,VALID,91.3113,VALID,0,VALID,24.7941,VALID,119,VALID,0,
2010-04-22, 00:35:04,VALID,1001.24,VALID,0,VALID,91.296,VALID,0,VALID,24.7922,VALID,119,VALID,0,
2010-04-22, 00:36:04,VALID,1001.2,VALID,0,VALID,91.1358,VALID,0,VALID,24.8332,VALID,119,VALID,0,
2010-04-22, 00:37:04,VALID,1001.23,VALID,0,VALID,91.0061,VALID,0,VALID,24.8332,VALID,119,VALID,0,
2010-04-22, 00:38:04,VALID,1001.2,VALID,0,VALID,91.0595,VALID,0,VALID,24.8332,VALID,119,VALID,0,
2010-04-22, 00:39:04,VALID,1001.2,VALID,0,VALID,91.0214,VALID,0,VALID,24.8527,VALID,119,VALID,0,
2010-04-22, 00:40:04,VALID,1001.2,VALID,0,VALID,90.9756,VALID,0,VALID,24.8722,VALID,119,VALID,0,
2010-04-22, 00:41:04,VALID,1001.18,VALID,0,VALID,90.9603,VALID,0,VALID,24.8722,VALID,119,VALID,0,
2010-04-22, 00:42:04,VALID,1001.16,VALID,0,VALID,90.8917,VALID,0,VALID,24.8722,VALID,119,VALID,0,
2010-04-22, 00:43:04,VALID,1001.18,VALID,0,VALID,90.6933,VALID,0,VALID,24.8703,VALID,119,VALID,0,
2010-04-22, 00:44:04,VALID,1001.13,VALID,0,VALID,90.6246,VALID,0,VALID,24.9112,VALID,119,VALID,0,
2010-04-22, 00:45:04,VALID,1001.15,VALID,0,VALID,90.5483,VALID,0,VALID,24.8917,VALID,119,VALID,0,
2010-04-22, 00:46:04,VALID,1001.15,VALID,0,VALID,90.5483,VALID,0,VALID,24.8917,VALID,119,VALID,0,
2010-04-22, 00:47:04,VALID,1001.15,VALID,0,VALID,90.5788,VALID,0,VALID,24.8722,VALID,119,VALID,0,
2010-04-22, 00:48:04,VALID,1001.14,VALID,0,VALID,90.7391,VALID,0,VALID,24.8313,VALID,118,VALID,0,
2010-04-22, 00:49:04,VALID,1001.12,VALID,0,VALID,90.8688,VALID,0,VALID,24.8722,VALID,118,VALID,0,
2010-04-22, 00:50:04,VALID,1001.13,VALID,0,VALID,90.8001,VALID,0,VALID,24.8527,VALID,118,VALID,0,
2010-04-22, 00:51:04,VALID,1001.1,VALID,0,VALID,90.7925,VALID,0,VALID,24.8722,VALID,117,VALID,0,
2010-04-22, 00:52:04,VALID,1001.09,VALID,0,VALID,90.8306,VALID,0,VALID,24.8527,VALID,111,VALID,0,
2010-04-22, 00:53:04,VALID,1001.09,VALID,0,VALID,90.7772,VALID,0,VALID,24.8527,VALID,111,VALID,0,
2010-04-22, 00:54:04,VALID,1001.09,VALID,0,VALID,90.762,VALID,0,VALID,24.8527,VALID,108,VALID,0,
2010-04-22, 00:55:04,VALID,1001.1,VALID,0,VALID,90.884,VALID,0,VALID,24.835,VALID,108,VALID,0,
2010-04-22, 00:56:04,VALID,1001.1,VALID,0,VALID,90.8535,VALID,0,VALID,24.7746,VALID,105,VALID,0,
2010-04-22, 00:57:04,VALID,1001.13,VALID,0,VALID,90.9222,VALID,0,VALID,24.7356,VALID,104,VALID,0,
2010-04-22, 00:58:04,VALID,1001.11,VALID,0,VALID,91.0519,VALID,0,VALID,24.6946,VALID,104,VALID,0,
2010-04-22, 00:59:04,VALID,1001.1,VALID,0,VALID,91.1206,VALID,0,VALID,24.6751,VALID,104,VALID,0,
2010-04-22, 01:00:04,VALID,1001.09,VALID,0,VALID,91.1968,VALID,0,VALID,24.6575,VALID,104,VALID,0,
2010-04-22, 01:01:04,VALID,1001.1,VALID,0,VALID,91.2884,VALID,0,VALID,24.6575,VALID,104,VALID,0,
2010-04-22, 01:02:04,VALID,1001.1,VALID,0,VALID,91.502,VALID,0,VALID,24.6166,VALID,81,VALID,0,
2010-04-22, 01:03:04,VALID,1001.01,VALID,0,VALID,91.4791,VALID,0,VALID,24.6166,VALID,57,VALID,0,
2010-04-22, 01:04:04,VALID,1001.03,VALID,0,VALID,91.6317,VALID,0,VALID,24.638,VALID,57,VALID,0.791016,
2010-04-22, 01:05:04,VALID,1001,VALID,0,VALID,91.5173,VALID,0,VALID,24.638,VALID,57,VALID,0.808984,
2010-04-22, 01:06:04,VALID,1000.97,VALID,0,VALID,91.5783,VALID,0,VALID,24.5971,VALID,57,VALID,0.725,
2010-04-22, 01:07:04,VALID,1000.97,VALID,0,VALID,91.5707,VALID,0,VALID,24.6184,VALID,57,VALID,0.741797,
2010-04-22, 01:08:04,VALID,1001.01,VALID,0,VALID,91.6088,VALID,0,VALID,24.6184,VALID,61,VALID,0.897656,
2010-04-22, 01:09:04,VALID,1000.98,VALID,0,VALID,91.4639,VALID,0,VALID,24.638,VALID,66,VALID,0.814453,
2010-04-22, 01:10:04,VALID,1001,VALID,0,VALID,91.3647,VALID,0,VALID,24.638,VALID,65,VALID,0.783594,
2010-04-22, 01:11:04,VALID,1001,VALID,0,VALID,91.296,VALID,0,VALID,24.5971,VALID,68,VALID,0.827734,
2010-04-22, 01:12:04,VALID,1001,VALID,0,VALID,91.1511,VALID,0,VALID,24.6184,VALID,73,VALID,0.681641,
2010-04-22, 01:13:04,VALID,1000.96,VALID,0,VALID,91.1968,VALID,0,VALID,24.6184,VALID,73,VALID,0.690625,
2010-04-22, 01:14:04,VALID,1000.96,VALID,0,VALID,91.1816,VALID,0,VALID,24.5989,VALID,73,VALID,0.746875,
2010-04-22, 01:15:04,VALID,1000.97,VALID,0,VALID,91.2579,VALID,0,VALID,24.5989,VALID,72,VALID,0.855859,
2010-04-22, 01:16:04,VALID,1000.96,VALID,0,VALID,91.2579,VALID,0,VALID,24.5989,VALID,67,VALID,0.805859,
2010-04-22, 01:17:04,VALID,1000.93,VALID,0,VALID,91.3113,VALID,0,VALID,24.5989,VALID,67,VALID,0.929688,
2010-04-22, 01:18:04,VALID,1000.99,VALID,0,VALID,91.4715,VALID,0,VALID,24.6184,VALID,67,VALID,0.826172,
2010-04-22, 01:19:04,VALID,1000.93,VALID,0,VALID,91.4105,VALID,0,VALID,24.6184,VALID,67,VALID,0.776172,
2010-04-22, 01:20:04,VALID,1000.97,VALID,0,VALID,91.3494,VALID,0,VALID,24.638,VALID,63,VALID,0.686328,
2010-04-22, 01:21:04,VALID,1000.96,VALID,0,VALID,91.38,VALID,0,VALID,24.638,VALID,64,VALID,0.690625,
2010-04-22, 01:22:04,VALID,1000.99,VALID,0,VALID,91.3647,VALID,0,VALID,24.6361,VALID,64,VALID,0.739062,
2010-04-22, 01:23:04,VALID,1000.93,VALID,0,VALID,91.3647,VALID,0,VALID,24.6575,VALID,65,VALID,0.750391,
2010-04-22, 01:24:04,VALID,1000.98,VALID,0,VALID,91.3342,VALID,0,VALID,24.6751,VALID,74,VALID,0.763672,
2010-04-22, 01:25:04,VALID,1000.95,VALID,0,VALID,91.3494,VALID,0,VALID,24.6965,VALID,74,VALID,0.435156,
2010-04-22, 01:26:04,VALID,1000.9,VALID,0,VALID,91.3037,VALID,0,VALID,24.6751,VALID,74,VALID,0.348047,
2010-04-22, 01:27:04,VALID,1000.91,VALID,0,VALID,91.2503,VALID,0,VALID,24.6751,VALID,74,VALID,0.178125,
2010-04-22, 01:28:04,VALID,1000.91,VALID,0,VALID,91.2045,VALID,0,VALID,24.6751,VALID,74,VALID,0.00585938,
2010-04-22, 01:29:04,VALID,1000.86,VALID,0,VALID,91.1968,VALID,0,VALID,24.6965,VALID,74,VALID,0,
2010-04-22, 01:30:04,VALID,1000.85,VALID,0,VALID,91.1968,VALID,0,VALID,24.6556,VALID,74,VALID,0,
2010-04-22, 01:31:04,VALID,1000.85,VALID,0,VALID,91.2274,VALID,0,VALID,24.6575,VALID,119,VALID,0.466016,
2010-04-22, 01:32:04,VALID,1000.83,VALID,0,VALID,91.1968,VALID,0,VALID,24.6575,VALID,119,VALID,0.264844,
2010-04-22, 01:33:04,VALID,1000.83,VALID,0,VALID,91.1892,VALID,0,VALID,24.6575,VALID,119,VALID,0,
2010-04-22, 01:34:04,VALID,1000.81,VALID,0,VALID,91.235,VALID,0,VALID,24.638,VALID,119,VALID,0,
2010-04-22, 01:35:04,VALID,1000.81,VALID,0,VALID,91.2197,VALID,0,VALID,24.6184,VALID,119,VALID,0,
2010-04-22, 01:36:04,VALID,1000.81,VALID,0,VALID,91.1892,VALID,0,VALID,24.5989,VALID,119,VALID,0,
2010-04-22, 01:37:04,VALID,1000.85,VALID,0,VALID,91.2045,VALID,0,VALID,24.5794,VALID,119,VALID,0,
2010-04-22, 01:38:04,VALID,1000.84,VALID,0,VALID,91.2579,VALID,0,VALID,24.5599,VALID,119,VALID,0,
2010-04-22, 01:39:04,VALID,1000.83,VALID,0,VALID,91.3037,VALID,0,VALID,24.5404,VALID,119,VALID,0,
2010-04-22, 01:40:04,VALID,1000.84,VALID,0,VALID,91.2655,VALID,0,VALID,24.5209,VALID,119,VALID,0,
2010-04-22, 01:41:04,VALID,1000.85,VALID,0,VALID,91.3189,VALID,0,VALID,24.4818,VALID,79,VALID,0,
2010-04-22, 01:42:04,VALID,1000.85,VALID,0,VALID,91.2731,VALID,0,VALID,24.4623,VALID,46,VALID,0.646484,
2010-04-22, 01:43:04,VALID,1000.86,VALID,0,VALID,91.1816,VALID,0,VALID,24.4233,VALID,33,VALID,0.557813,
2010-04-22, 01:44:04,VALID,1000.88,VALID,0,VALID,91.3189,VALID,0,VALID,24.4037,VALID,33,VALID,0.655469,
2010-04-22, 01:45:04,VALID,1000.87,VALID,0,VALID,91.2426,VALID,0,VALID,24.3452,VALID,33,VALID,0.771484,
2010-04-22, 01:46:04,VALID,1000.84,VALID,0,VALID,91.4181,VALID,0,VALID,24.3062,VALID,35,VALID,0.973437,
2010-04-22, 01:47:04,VALID,1000.86,VALID,0,VALID,91.4181,VALID,0,VALID,24.2866,VALID,36,VALID,0.895703,
2010-04-22, 01:48:04,VALID,1000.83,VALID,0,VALID,91.5402,VALID,0,VALID,24.2866,VALID,34,VALID,0.590234,
2010-04-22, 01:49:04,VALID,1000.8,VALID,0,VALID,91.6775,VALID,0,VALID,24.2458,VALID,32,VALID,0.759375,
2010-04-22, 01:50:04,VALID,1000.78,VALID,0,VALID,91.7157,VALID,0,VALID,24.2476,VALID,32,VALID,0.401953,
2010-04-22, 01:51:04,VALID,1000.77,VALID,0,VALID,91.6546,VALID,0,VALID,24.2281,VALID,31,VALID,0,
2010-04-22, 01:52:04,VALID,1000.76,VALID,0,VALID,91.5936,VALID,0,VALID,24.2086,VALID,31,VALID,0,
2010-04-22, 01:53:04,VALID,1000.76,VALID,0,VALID,91.647,VALID,0,VALID,24.1891,VALID,31,VALID,0,
2010-04-22, 01:54:04,VALID,1000.75,VALID,0,VALID,91.7309,VALID,0,VALID,24.15,VALID,31,VALID,0,
2010-04-22, 01:55:04,VALID,1000.77,VALID,0,VALID,91.7767,VALID,0,VALID,24.15,VALID,31,VALID,0,
2010-04-22, 01:56:04,VALID,1000.76,VALID,0,VALID,91.8835,VALID,0,VALID,24.1305,VALID,31,VALID,0,
2010-04-22, 01:57:04,VALID,1000.78,VALID,0,VALID,91.9903,VALID,0,VALID,24.15,VALID,31,VALID,0,
2010-04-22, 01:58:04,VALID,1000.76,VALID,0,VALID,92.0971,VALID,0,VALID,24.1305,VALID,31,VALID,0,
2010-04-22, 01:59:04,VALID,1000.8,VALID,0,VALID,92.0895,VALID,0,VALID,24.1305,VALID,31,VALID,0,
2010-04-22, 02:00:04,VALID,1000.75,VALID,0,VALID,92.1048,VALID,0,VALID,24.1305,VALID,31,VALID,0,
2010-04-22, 02:01:04,VALID,1000.77,VALID,0,VALID,92.1506,VALID,0,VALID,24.1092,VALID,31,VALID,0,
2010-04-22, 02:02:04,VALID,1000.73,VALID,0,VALID,92.1734,VALID,0,VALID,24.111,VALID,31,VALID,0,
2010-04-22, 02:03:04,VALID,1000.71,VALID,0,VALID,92.1734,VALID,0,VALID,24.0915,VALID,31,VALID,0,
2010-04-22, 02:04:04,VALID,1000.67,VALID,0,VALID,92.2116,VALID,0,VALID,24.0897,VALID,31,VALID,0,
2010-04-22, 02:05:04,VALID,1000.69,VALID,0,VALID,92.2421,VALID,0,VALID,24.0915,VALID,31,VALID,0,
2010-04-22, 02:06:04,VALID,1000.69,VALID,0,VALID,92.2803,VALID,0,VALID,24.0915,VALID,31,VALID,0,
2010-04-22, 02:07:04,VALID,1000.68,VALID,0,VALID,92.3566,VALID,0,VALID,24.0915,VALID,31,VALID,0,
2010-04-22, 02:08:04,VALID,1000.66,VALID,0,VALID,92.4328,VALID,0,VALID,24.111,VALID,31,VALID,0,
2010-04-22, 02:09:04,VALID,1000.63,VALID,0,VALID,92.4405,VALID,0,VALID,24.111,VALID,31,VALID,0,
2010-04-22, 02:10:04,VALID,1000.64,VALID,0,VALID,92.4481,VALID,0,VALID,24.1305,VALID,31,VALID,0,
2010-04-22, 02:11:04,VALID,1000.62,VALID,0,VALID,92.4863,VALID,0,VALID,24.1305,VALID,31,VALID,0,
2010-04-22, 02:12:04,VALID,1000.62,VALID,0,VALID,92.5015,VALID,0,VALID,24.1305,VALID,31,VALID,0,
2010-04-22, 02:13:04,VALID,1000.62,VALID,0,VALID,92.5931,VALID,0,VALID,24.1287,VALID,31,VALID,0,
2010-04-22, 02:14:04,VALID,1000.6,VALID,0,VALID,92.5473,VALID,0,VALID,24.1305,VALID,31,VALID,0,
2010-04-22, 02:15:04,VALID,1000.61,VALID,0,VALID,92.5397,VALID,0,VALID,24.1305,VALID,31,VALID,0,
2010-04-22, 02:16:04,VALID,1000.6,VALID,0,VALID,92.5397,VALID,0,VALID,24.1305,VALID,31,VALID,0,
2010-04-22, 02:17:04,VALID,1000.57,VALID,0,VALID,92.6007,VALID,0,VALID,24.15,VALID,31,VALID,0,
2010-04-22, 02:18:04,VALID,1000.56,VALID,0,VALID,92.6236,VALID,0,VALID,24.15,VALID,31,VALID,0,
2010-04-22, 02:19:04,VALID,1000.57,VALID,0,VALID,92.5397,VALID,0,VALID,24.1287,VALID,31,VALID,0.0273438,
2010-04-22, 02:20:04,VALID,1000.55,VALID,0,VALID,92.532,VALID,0,VALID,24.111,VALID,31,VALID,0.501172,
2010-04-22, 02:21:04,VALID,1000.56,VALID,0,VALID,92.5854,VALID,0,VALID,24.15,VALID,84,VALID,0.800781,
2010-04-22, 02:22:04,VALID,1000.57,VALID,0,VALID,92.7075,VALID,0,VALID,24.1696,VALID,98,VALID,1.02109,
2010-04-22, 02:23:04,VALID,1000.56,VALID,0,VALID,92.6312,VALID,0,VALID,24.2104,VALID,110,VALID,0.741406,
2010-04-22, 02:24:04,VALID,1000.56,VALID,0,VALID,92.471,VALID,0,VALID,24.1891,VALID,111,VALID,0.460938,
2010-04-22, 02:25:04,VALID,1000.54,VALID,0,VALID,92.5015,VALID,0,VALID,24.1872,VALID,118,VALID,0.801562,
2010-04-22, 02:26:04,VALID,1000.54,VALID,0,VALID,92.4863,VALID,0,VALID,24.2281,VALID,119,VALID,0.482031,
2010-04-22, 02:27:04,VALID,1000.52,VALID,0,VALID,92.4939,VALID,0,VALID,24.2476,VALID,119,VALID,0,
2010-04-22, 02:28:04,VALID,1000.52,VALID,0,VALID,92.4939,VALID,0,VALID,24.2866,VALID,119,VALID,0,
2010-04-22, 02:29:04,VALID,1000.48,VALID,0,VALID,92.4939,VALID,0,VALID,24.2866,VALID,119,VALID,0,
2010-04-22, 02:30:04,VALID,1000.5,VALID,0,VALID,92.3947,VALID,0,VALID,24.2866,VALID,119,VALID,0,
2010-04-22, 02:31:04,VALID,1000.48,VALID,0,VALID,92.3337,VALID,0,VALID,24.2671,VALID,119,VALID,0,
2010-04-22, 02:32:04,VALID,1000.48,VALID,0,VALID,92.3642,VALID,0,VALID,24.2671,VALID,119,VALID,0,
2010-04-22, 02:33:04,VALID,1000.5,VALID,0,VALID,92.3718,VALID,0,VALID,24.2671,VALID,119,VALID,0,
2010-04-22, 02:34:04,VALID,1000.53,VALID,0,VALID,92.3718,VALID,0,VALID,24.2671,VALID,109,VALID,0,
2010-04-22, 02:35:04,VALID,1000.51,VALID,0,VALID,92.265,VALID,0,VALID,24.2067,VALID,53,VALID,0,
2010-04-22, 02:36:04,VALID,1000.51,VALID,0,VALID,91.9751,VALID,0,VALID,24.1891,VALID,48,VALID,0,
2010-04-22, 02:37:04,VALID,1000.52,VALID,0,VALID,91.792,VALID,0,VALID,24.111,VALID,40,VALID,0.0113281,
2010-04-22, 02:38:04,VALID,1000.51,VALID,0,VALID,92.1124,VALID,0,VALID,24.111,VALID,50,VALID,0.680859,
2010-04-22, 02:39:04,VALID,1000.49,VALID,0,VALID,92.3031,VALID,0,VALID,24.0915,VALID,52,VALID,0.860937,
2010-04-22, 02:40:04,VALID,1000.5,VALID,0,VALID,92.326,VALID,0,VALID,24.111,VALID,52,VALID,0.687891,
2010-04-22, 02:41:04,VALID,1000.47,VALID,0,VALID,92.4328,VALID,0,VALID,24.111,VALID,46,VALID,0.78125,
2010-04-22, 02:42:04,VALID,1000.46,VALID,0,VALID,92.1734,VALID,0,VALID,24.072,VALID,45,VALID,0.8625,
2010-04-22, 02:43:04,VALID,1000.49,VALID,0,VALID,92.1506,VALID,0,VALID,24.0329,VALID,36,VALID,0.758594,
2010-04-22, 02:44:04,VALID,1000.48,VALID,0,VALID,92.1048,VALID,0,VALID,23.9921,VALID,43,VALID,0.885547,
2010-04-22, 02:45:04,VALID,1000.46,VALID,0,VALID,92.3489,VALID,0,VALID,24.0134,VALID,43,VALID,0.607031,
2010-04-22, 02:46:04,VALID,1000.48,VALID,0,VALID,92.4786,VALID,0,VALID,24.0329,VALID,42,VALID,0.758203,
2010-04-22, 02:47:04,VALID,1000.48,VALID,0,VALID,92.5244,VALID,0,VALID,24.0525,VALID,41,VALID,0.466406,
2010-04-22, 02:48:04,VALID,1000.48,VALID,0,VALID,92.4557,VALID,0,VALID,24.0329,VALID,41,VALID,0.579687,
2010-04-22, 02:49:04,VALID,1000.52,VALID,0,VALID,92.3947,VALID,0,VALID,24.0329,VALID,41,VALID,0.428516,
2010-04-22, 02:50:04,VALID,1000.5,VALID,0,VALID,92.3489,VALID,0,VALID,24.0134,VALID,41,VALID,0.430859,
2010-04-22, 02:51:04,VALID,1000.48,VALID,0,VALID,92.4023,VALID,0,VALID,24.0134,VALID,41,VALID,0.235547,
2010-04-22, 02:52:04,VALID,1000.48,VALID,0,VALID,92.4176,VALID,0,VALID,23.9939,VALID,41,VALID,0,
2010-04-22, 02:53:04,VALID,1000.51,VALID,0,VALID,92.3489,VALID,0,VALID,23.9744,VALID,41,VALID,0,
2010-04-22, 02:54:04,VALID,1000.48,VALID,0,VALID,92.5778,VALID,0,VALID,23.9939,VALID,66,VALID,0.550391,
2010-04-22, 02:55:04,VALID,1000.49,VALID,0,VALID,92.5244,VALID,0,VALID,23.9939,VALID,83,VALID,0.641406,
2010-04-22, 02:56:04,VALID,1000.51,VALID,0,VALID,92.532,VALID,0,VALID,23.9939,VALID,84,VALID,0.5125,
2010-04-22, 02:57:04,VALID,1000.47,VALID,0,VALID,92.4939,VALID,0,VALID,24.0134,VALID,84,VALID,0.0910156,
2010-04-22, 02:58:04,VALID,1000.48,VALID,0,VALID,92.5168,VALID,0,VALID,24.0329,VALID,84,VALID,0,
2010-04-22, 02:59:04,VALID,1000.49,VALID,0,VALID,92.471,VALID,0,VALID,24.0525,VALID,84,VALID,0,
2010-04-22, 03:00:04,VALID,1000.48,VALID,0,VALID,92.4405,VALID,0,VALID,24.0525,VALID,84,VALID,0,
2010-04-22, 03:01:04,VALID,1000.51,VALID,0,VALID,92.3794,VALID,0,VALID,24.072,VALID,84,VALID,0,
2010-04-22, 03:02:04,VALID,1000.52,VALID,0,VALID,92.3794,VALID,0,VALID,24.072,VALID,84,VALID,0.48125,
2010-04-22, 03:03:04,VALID,1000.5,VALID,0,VALID,92.3108,VALID,0,VALID,24.0915,VALID,82,VALID,0.190625,
2010-04-22, 03:04:04,VALID,1000.54,VALID,0,VALID,92.1811,VALID,0,VALID,24.0915,VALID,77,VALID,0,
2010-04-22, 03:05:04,VALID,1000.56,VALID,0,VALID,92.12,VALID,0,VALID,24.072,VALID,60,VALID,0,
2010-04-22, 03:06:04,VALID,1000.58,VALID,0,VALID,92.0819,VALID,0,VALID,24.0915,VALID,58,VALID,0,
2010-04-22, 03:07:04,VALID,1000.58,VALID,0,VALID,92.0666,VALID,0,VALID,24.0915,VALID,36,VALID,0,
2010-04-22, 03:08:04,VALID,1000.57,VALID,0,VALID,91.9598,VALID,0,VALID,24.072,VALID,31,VALID,0,
2010-04-22, 03:09:04,VALID,1000.58,VALID,0,VALID,91.9445,VALID,0,VALID,24.0506,VALID,31,VALID,0,
2010-04-22, 03:10:04,VALID,1000.59,VALID,0,VALID,91.9217,VALID,0,VALID,24.0525,VALID,31,VALID,0,
2010-04-22, 03:11:04,VALID,1000.58,VALID,0,VALID,91.9369,VALID,0,VALID,24.0525,VALID,31,VALID,0,
2010-04-22, 03:12:04,VALID,1000.57,VALID,0,VALID,91.9827,VALID,0,VALID,24.0311,VALID,31,VALID,0,
2010-04-22, 03:13:04,VALID,1000.56,VALID,0,VALID,91.9903,VALID,0,VALID,24.0525,VALID,31,VALID,0,
2010-04-22, 03:14:04,VALID,1000.57,VALID,0,VALID,92.0132,VALID,0,VALID,24.0329,VALID,31,VALID,0,
2010-04-22, 03:15:04,VALID,1000.57,VALID,0,VALID,92.0056,VALID,0,VALID,24.0116,VALID,31,VALID,0,
2010-04-22, 03:16:04,VALID,1000.59,VALID,0,VALID,92.0209,VALID,0,VALID,24.0134,VALID,31,VALID,0,
2010-04-22, 03:17:04,VALID,1000.57,VALID,0,VALID,92.0819,VALID,0,VALID,24.0134,VALID,31,VALID,0,
2010-04-22, 03:18:04,VALID,1000.6,VALID,0,VALID,92.1048,VALID,0,VALID,24.0134,VALID,31,VALID,0,
2010-04-22, 03:19:04,VALID,1000.56,VALID,0,VALID,92.1048,VALID,0,VALID,23.9939,VALID,31,VALID,0,
2010-04-22, 03:20:04,VALID,1000.56,VALID,0,VALID,92.0666,VALID,0,VALID,23.9744,VALID,31,VALID,0,
2010-04-22, 03:21:04,VALID,1000.52,VALID,0,VALID,92.0285,VALID,0,VALID,23.9549,VALID,31,VALID,0,
2010-04-22, 03:22:04,VALID,1000.53,VALID,0,VALID,92.0132,VALID,0,VALID,23.9354,VALID,31,VALID,0,
2010-04-22, 03:23:04,VALID,1000.52,VALID,0,VALID,92.1811,VALID,0,VALID,23.9159,VALID,31,VALID,0,
2010-04-22, 03:24:04,VALID,1000.52,VALID,0,VALID,92.3031,VALID,0,VALID,23.9159,VALID,31,VALID,0,
2010-04-22, 03:25:04,VALID,1000.51,VALID,0,VALID,92.3947,VALID,0,VALID,23.9354,VALID,31,VALID,0,
2010-04-22, 03:26:04,VALID,1000.55,VALID,0,VALID,92.5015,VALID,0,VALID,23.9354,VALID,31,VALID,0,
2010-04-22, 03:27:04,VALID,1000.51,VALID,0,VALID,92.6541,VALID,0,VALID,23.9744,VALID,31,VALID,0,
2010-04-22, 03:28:04,VALID,1000.52,VALID,0,VALID,92.6923,VALID,0,VALID,23.9939,VALID,31,VALID,0,
2010-04-22, 03:29:04,VALID,1000.51,VALID,0,VALID,92.7609,VALID,0,VALID,24.0134,VALID,59,VALID,0,
2010-04-22, 03:30:04,VALID,1000.48,VALID,0,VALID,92.7914,VALID,0,VALID,24.0329,VALID,115,VALID,0,
2010-04-22, 03:31:04,VALID,1000.49,VALID,0,VALID,92.7304,VALID,0,VALID,24.0311,VALID,115,VALID,0,
2010-04-22, 03:32:04,VALID,1000.5,VALID,0,VALID,92.6923,VALID,0,VALID,24.0525,VALID,115,VALID,0,
2010-04-22, 03:33:04,VALID,1000.49,VALID,0,VALID,92.6846,VALID,0,VALID,24.072,VALID,115,VALID,0,
2010-04-22, 03:34:04,VALID,1000.49,VALID,0,VALID,92.6007,VALID,0,VALID,24.0915,VALID,120,VALID,0,
2010-04-22, 03:35:04,VALID,1000.51,VALID,0,VALID,92.4863,VALID,0,VALID,24.111,VALID,121,VALID,0,
2010-04-22, 03:36:04,VALID,1000.5,VALID,0,VALID,92.4176,VALID,0,VALID,24.1305,VALID,124,VALID,0,
2010-04-22, 03:37:04,VALID,1000.49,VALID,0,VALID,92.265,VALID,0,VALID,24.111,VALID,124,VALID,0,
2010-04-22, 03:38:04,VALID,1000.51,VALID,0,VALID,92.1734,VALID,0,VALID,24.111,VALID,124,VALID,0,
2010-04-22, 03:39:04,VALID,1000.5,VALID,0,VALID,92.1353,VALID,0,VALID,24.111,VALID,124,VALID,0,
2010-04-22, 03:40:04,VALID,1000.5,VALID,0,VALID,92.12,VALID,0,VALID,24.1092,VALID,124,VALID,0,
2010-04-22, 03:41:04,VALID,1000.51,VALID,0,VALID,92.0819,VALID,0,VALID,24.111,VALID,124,VALID,0,
2010-04-22, 03:42:04,VALID,1000.49,VALID,0,VALID,91.998,VALID,0,VALID,24.111,VALID,124,VALID,0,
2010-04-22, 03:43:04,VALID,1000.45,VALID,0,VALID,91.9827,VALID,0,VALID,24.0701,VALID,124,VALID,0,
2010-04-22, 03:44:04,VALID,1000.46,VALID,0,VALID,92.0437,VALID,0,VALID,24.0915,VALID,124,VALID,0,
2010-04-22, 03:45:04,VALID,1000.44,VALID,0,VALID,92.0285,VALID,0,VALID,24.072,VALID,124,VALID,0,
2010-04-22, 03:46:04,VALID,1000.46,VALID,0,VALID,92.0666,VALID,0,VALID,24.072,VALID,124,VALID,0,
2010-04-22, 03:47:04,VALID,1000.44,VALID,0,VALID,92.1124,VALID,0,VALID,24.0525,VALID,124,VALID,0,
2010-04-22, 03:48:04,VALID,1000.46,VALID,0,VALID,92.0743,VALID,0,VALID,24.0329,VALID,106,VALID,0,
2010-04-22, 03:49:04,VALID,1000.42,VALID,0,VALID,92.2574,VALID,0,VALID,24.0525,VALID,105,VALID,0,
2010-04-22, 03:50:04,VALID,1000.44,VALID,0,VALID,92.326,VALID,0,VALID,24.0525,VALID,105,VALID,0,
2010-04-22, 03:51:04,VALID,1000.42,VALID,0,VALID,92.2497,VALID,0,VALID,24.0525,VALID,106,VALID,0,
2010-04-22, 03:52:04,VALID,1000.44,VALID,0,VALID,92.3413,VALID,0,VALID,24.0329,VALID,108,VALID,0,
2010-04-22, 03:53:04,VALID,1000.43,VALID,0,VALID,92.2497,VALID,0,VALID,24.0329,VALID,108,VALID,0,
2010-04-22, 03:54:04,VALID,1000.41,VALID,0,VALID,92.1582,VALID,0,VALID,24.0134,VALID,108,VALID,0,
2010-04-22, 03:55:04,VALID,1000.41,VALID,0,VALID,92.2345,VALID,0,VALID,23.9921,VALID,108,VALID,0,
2010-04-22, 03:56:04,VALID,1000.42,VALID,0,VALID,92.3108,VALID,0,VALID,24.0134,VALID,108,VALID,0,